Overview Statistics Trail Chart Weather Telemetry Raw packets
 

This is the latest recevied weather packets stored in our database for station/object DG3NAD-21. If no packets are shown the sender has not sent any weather packets the latest 10 day(s).

<< 29 30 31 32 33 34 35 >>
Time Temp. Humidity Pressure Rain* Wind** Luminosity Snow
1787923593 26.11° C 58% 1015.6 hPa - - - -
1787922693 26.11° C 59% 1015.5 hPa - - - -
1787921792 26.11° C 60% 1015.4 hPa - - - -
1787920892 26.11° C 59% 1015.3 hPa - - - -
1787919992 25.56° C 60% 1015.3 hPa - - - -
1787919092 25.56° C 60% 1015.2 hPa - - - -
1787918192 25.56° C 61% 1015.4 hPa - - - -
1787917292 25.56° C 60% 1015.4 hPa - - - -
1787916392 25° C 61% 1015.4 hPa - - - -
1787915492 24.44° C 60% 1015 hPa - - - -
1787914591 23.89° C 62% 1014.3 hPa - - - -
1787913691 23.33° C 63% 1015.8 hPa - - - -
1787912791 23.89° C 62% 1016.7 hPa - - - -
1787911891 23.89° C 62% 1017.6 hPa - - - -
1787910990 23.89° C 63% 1017.7 hPa - - - -
1787910090 23.89° C 63% 1016 hPa - - - -
1787909190 23.89° C 64% 1015.6 hPa - - - -
1787908290 24.44° C 64% 1015.9 hPa - - - -
1787907390 25° C 62% 1014.6 hPa - - - -
1787906490 25.56° C 60% 1014.2 hPa - - - -
1787905590 26.11° C 59% 1013.3 hPa - - - -
1787904689 25.56° C 59% 1013.3 hPa - - - -
1787903788 26.11° C 58% 1013.6 hPa - - - -
1787902888 24.44° C 60% 1013.7 hPa - - - -
1787901988 23.89° C 61% 1015 hPa - - - -

* Rain since midnight (hover to see other rain measurements)
** Current wind speed in m/s (hover to see current wind gust speed)